Content
SEND FEEDBACK

Daily
Averages
Monthly
Summary
United States of America

MEMPHIS, TENNESSEE


Home > North America > United States > Tennessee
Elevation: 242 feet     Latitude: 35 03N     Longitude: 090 00W

WEATHER
 
SELECT A DAY
Number of Records: 193,502;   Date Range: 1/1/95 - 9/16/14
 
SHARE

PRINT THIS DATA

[ ← Previous Day ]
WEATHER ALMANAC - JANUARY 31, 2013
[ Next Day → ]
[ °C ]   °F
Weather ElementAverageHighLow
Temperature41.4 °F54 °F (2:54 pm)30 °F (3:54 am)
Dewpoint26.2 °F30.9 °F (2:54 pm)17.6 °F (11:52 pm)
Humidity56.7 %80 % (5:54 am)38 % (3:54 pm)
Barometer30.15 in30.34 in (11:52 pm)30.06 in (1:54 am)
Wind Speed9.5 mph16.1 mph (8:01 pm)
Wind Gust26.5 mph (9:54 pm)
Weather ElementAverage
Visibility10 mi
Wind DirectionWSW (258.8 °)

Weather ElementTotal
Precipitation---
Heating Degree Days23 (Base 65)
Averaged from 25 records on January 31, 2013
WEATHER CONDITIONS BREAKOUT
WIND DIRECTION BREAKOUT
WEATHER BY HOUR - JANUARY 31, 2013
[ °C ]   °F
Local TimeTemperatureDewpointHumidityBarometerVisibilityWind DirectionWind SpeedGust SpeedPrecipitationEventsConditions
1:54 AM32.0 °F23.0 °F69 %30.06 in10.0 miWNW (290°)5.8 mphClear
2:54 AM30.9 °F23.0 °F72 %30.06 in10.0 miWest (280°)3.5 mphClear
3:54 AM30.0 °F23.0 °F75 %30.06 in10.0 miSW (230°)4.6 mphClear
4:54 AM30.0 °F23.0 °F75 %30.07 in10.0 miSW (220°)5.8 mphClear
5:54 AM30.2 °F24.8 °F80 %30.10 in10.0 miSW (230°)4.6 mphClear
6:54 AM30.9 °F24.1 °F76 %30.14 in10.0 miCalmClear
7:54 AM34.0 °F26.1 °F73 %30.17 in10.0 miWest (260°)4.6 mphClear
8:54 AM36.0 °F25.0 °F64 %30.19 in10.0 miWest (280°)5.8 mphClear
9:54 AM39.9 °F26.1 °F58 %30.19 in10.0 miSW (230°)6.9 mph25.3 mphClear
10:54 AM42.1 °F25.0 °F51 %30.19 in10.0 miSW (230°)9.2 mph18.4 mphClear
11:54 AM46.9 °F25.0 °F42 %30.15 in10.0 miWSW (240°)9.2 mphClear
12:54 PM50.0 °F27.0 °F41 %30.12 in10.0 miSW (230°)11.5 mph18.4 mphClear
1:54 PM52.0 °F30.0 °F43 %30.09 in10.0 miSW (230°)11.5 mph19.6 mphClear
2:54 PM54.0 °F30.9 °F41 %30.07 in10.0 miSW (220°)12.7 mph20.7 mphPartly Cloudy
3:54 PM54.0 °F28.9 °F38 %30.09 in10.0 miSW (220°)13.8 mph20.7 mphPartly Cloudy
4:54 PM53.1 °F30.0 °F41 %30.09 in10.0 miSW (230°)11.5 mphPartly Cloudy
5:54 PM51.1 °F30.0 °F44 %30.09 in10.0 miSW (230°)9.2 mphScattered Clouds
6:54 PM48.9 °F30.0 °F48 %30.12 in10.0 miSW (230°)4.6 mphScattered Clouds
7:54 PM50.0 °F30.9 °F48 %30.17 in10.0 miNNW (330°)15.0 mphScattered Clouds
8:01 PM48.2 °F30.2 °F50 %30.17 in10.0 miNNW (340°)16.1 mph23.0 mphScattered Clouds
8:54 PM46.9 °F28.9 °F50 %30.21 in10.0 miNNW (340°)16.1 mph23.0 mphMostly Cloudy
9:54 PM39.0 °F28.0 °F65 %30.27 in10.0 miNNW (340°)12.7 mph26.5 mphMostly Cloudy
10:54 PM37.0 °F28.0 °F70 %30.32 in10.0 miNorth (360°)16.1 mph21.9 mphOvercast
11:52 PM33.8 °F17.6 °F52 %30.34 in10.0 miNNW (340°)13.8 mphMostly Cloudy
11:54 PM33.8 °F17.6 °F52 %30.34 in10.0 miNNW (340°)13.8 mphMostly Cloudy
Hourly data recorded from KMEM, located miles away from Memphis, Tennessee







STORIES FROM OUR PARTNERS